CW3467 Weather Reports


Display with metric or nautical units.
time (UTC)temp
F
wind
direction
speed
MPH
gust
MPH
rain 1hr
in
rain 24hr
in
rain mn
in
humidity
%
barometer
mb
20260905115004 97 236 1.0 2.0 0.00 0.00 0.00 27 1024.6
20260905114525 96 232 1.0 2.0 0.00 0.00 0.00 31 1024.5
20260905114003 95 308 1.0 6.0 0.00 0.00 0.00 32 1024.6
20260905113504 94 301 2.0 6.0 0.00 0.00 0.00 33 1024.8
20260905113003 94 276 2.0 4.0 0.00 0.00 0.00 32 1024.8
20260905112503 94 260 1.0 3.0 0.00 0.00 0.00 32 1024.9
20260905112003 93 262 1.0 3.0 0.00 0.00 0.00 33 1024.8
20260905111503 93 262 1.0 3.0 0.00 0.00 0.00 32 1025.0
20260905111003 92 247 0.0 2.0 0.00 0.00 0.00 33 1025.1
20260905110503 90 252 1.0 3.0 0.00 0.00 0.00 34 1025.2
20260905110004 90 270 1.0 3.0 0.00 0.00 0.00 34 1025.1
20260905105503 90 246 1.0 3.0 0.00 0.00 0.00 34 1025.3
20260905105003 90 221 1.0 2.0 0.00 0.00 0.00 35 1025.3
20260905104503 89 218 1.0 2.0 0.00 0.00 0.00 34 1025.3
20260905104003 90 255 1.0 3.0 0.00 0.00 0.00 35 1025.3
20260905103503 88 249 1.0 3.0 0.00 0.00 0.00 35 1025.5
20260905103003 89 255 1.0 3.0 0.00 0.00 0.00 34 1025.5
20260905102524 88 255 1.0 3.0 0.00 0.00 0.00 35 1025.3
20260905102003 86 254 1.0 3.0 0.00 0.00 0.00 34 1025.4
20260905101503 87 259 1.0 4.0 0.00 0.00 0.00 35 1025.6
20260905101003 86 246 1.0 4.0 0.00 0.00 0.00 34 1025.6
20260905100503 86 241 1.0 2.0 0.00 0.00 0.00 36 1025.5
20260905100003 85 259 1.0 3.0 0.00 0.00 0.00 36 1025.5
20260905095503 85 254 1.0 4.0 0.00 0.00 0.00 37 1025.3
20260905095003 86 257 1.0 4.0 0.00 0.00 0.00 37 1025.4
20260905094503 85 273 2.0 4.0 0.00 0.00 0.00 37 1025.4
20260905094024 85 272 2.0 4.0 0.00 0.00 0.00 36 1025.5
20260905093503 85 261 1.0 3.0 0.00 0.00 0.00 37 1025.6
20260905093003 85 257 1.0 3.0 0.00 0.00 0.00 37 1025.4
20260905092503 83 253 1.0 3.0 0.00 0.00 0.00 36 1025.5
20260905092024 84 244 1.0 3.0 0.00 0.00 0.00 38 1025.6
20260905091503 83 250 1.0 3.0 0.00 0.00 0.00 37 1025.6
20260905091003 82 254 2.0 3.0 0.00 0.00 0.00 39 1025.7
20260905090503 81 254 2.0 3.0 0.00 0.00 0.00 39 1025.6
20260905090004 80 256 2.0 3.0 0.00 0.00 0.00 40 1025.6
20260905085503 80 255 1.0 3.0 0.00 0.00 0.00 40 1025.5
20260905085003 79 261 1.0 3.0 0.00 0.00 0.00 42 1025.5
20260905084503 79 256 1.0 3.0 0.00 0.00 0.00 42 1025.6
20260905084024 79 244 1.0 2.0 0.00 0.00 0.00 42 1025.5
20260905083503 78 245 1.0 3.0 0.00 0.00 0.00 42 1025.3
20260905083024 78 247 1.0 3.0 0.00 0.00 0.00 44 1025.5
20260905082503 77 243 1.0 2.0 0.00 0.00 0.00 45 1025.7
20260905082024 77 239 1.0 2.0 0.00 0.00 0.00 43 1025.5
20260905081503 77 240 0.0 2.0 0.00 0.00 0.00 44 1025.5
20260905081003 76 234 1.0 2.0 0.00 0.00 0.00 44 1025.6
20260905080503 76 224 0.0 2.0 0.00 0.00 0.00 45 1025.7
20260905080004 77 248 1.0 2.0 0.00 0.00 0.00 44 1025.6
20260905075503 75 245 1.0 2.0 0.00 0.00 0.00 45 1025.4
20260905075003 75 241 1.0 2.0 0.00 0.00 0.00 47 1025.5
20260905074503 74 238 1.0 2.0 0.00 0.00 0.00 46 1025.6
20260905074003 74 237 1.0 2.0 0.00 0.00 0.00 48 1025.6
20260905073503 73 236 1.0 2.0 0.00 0.00 0.00 47 1025.6
20260905073003 73 233 0.0 1.0 0.00 0.00 0.00 47 1025.5
20260905072524 73 234 0.0 1.0 0.00 0.00 0.00 48 1025.6
20260905072003 72 227 0.0 1.0 0.00 0.00 0.00 50 1025.6
20260905071503 72 231 0.0 1.0 0.00 0.00 0.00 50 1025.7
20260905071003 71 235 0.0 1.0 0.00 0.00 0.00 50 1025.7
20260905070524 71 0 0.0 0.0 0.00 0.00 0.00 50 1025.8
20260905070024 71 228 0.0 1.0 0.00 0.00 0.00 49 1025.6
20260905065503 71 226 0.0 1.0 0.00 0.00 0.00 51 1025.6
20260905065003 71 227 0.0 1.0 0.00 0.00 0.00 49 1025.5
20260905064503 71 233 0.0 1.0 0.00 0.00 0.00 49 1025.5
20260905064003 71 216 0.0 1.0 0.00 0.00 0.00 51 1025.5
20260905063524 71 218 0.0 1.0 0.00 0.00 0.00 51 1025.4
20260905063003 70 222 0.0 1.0 0.00 0.00 0.00 48 1025.5
20260905062503 70 223 0.0 1.0 0.00 0.00 0.00 49 1025.5
20260905062003 69 226 0.0 1.0 0.00 0.00 0.00 51 1025.4
20260905061503 69 0 0.0 0.0 0.00 0.00 0.00 50 1025.5
20260905061003 69 225 0.0 1.0 0.00 0.00 0.00 50 1025.2
20260905060503 69 223 0.0 1.0 0.00 0.00 0.00 50 1025.1
20260905060024 69 220 0.0 2.0 0.00 0.00 0.00 50 1025.2
20260905055503 69 220 0.0 2.0 0.00 0.00 0.00 49 1025.0
20260905055003 69 220 0.0 1.0 0.00 0.00 0.00 49 1025.2
20260905054524 69 220 0.0 1.0 0.00 0.00 0.00 49 1025.1
20260905054003 69 207 0.0 1.0 0.00 0.00 0.00 49 1025.1
20260905053503 69 211 0.0 1.0 0.00 0.00 0.00 48 1024.9
20260905053003 69 220 0.0 2.0 0.00 0.00 0.00 49 1024.9
20260905052503 69 222 0.0 2.0 0.00 0.00 0.00 49 1025.0
20260905052003 69 230 0.0 1.0 0.00 0.00 0.00 49 1024.9
20260905051503 69 230 0.0 1.0 0.00 0.00 0.00 49 1025.0
20260905051024 69 0 0.0 0.0 0.00 0.00 0.00 48 1024.6
20260905050524 69 220 0.0 1.0 0.00 0.00 0.00 48 1024.8
20260905050003 69 221 0.0 1.0 0.00 0.00 0.00 49 1024.7
20260905045503 69 222 0.0 1.0 0.00 0.00 0.00 48 1024.8
20260905045003 69 224 0.0 1.0 0.00 0.00 0.00 49 1025.0
20260905044503 69 225 0.0 1.0 0.00 0.00 0.00 48 1024.8
20260905044024 70 223 0.0 1.0 0.00 0.00 0.00 48 1024.8
20260905043503 70 223 0.0 1.0 0.00 0.00 0.00 47 1024.7
20260905043003 70 226 0.0 1.0 0.00 0.00 0.00 47 1024.6
20260905042503 70 225 0.0 1.0 0.00 0.00 0.00 47 1024.6
20260905042024 70 220 0.0 1.0 0.00 0.00 0.00 47 1024.6
20260905041503 70 218 0.0 1.0 0.00 0.00 0.00 47 1024.6
20260905041003 69 219 0.0 1.0 0.00 0.00 0.00 47 1024.6
20260905040503 69 220 0.0 1.0 0.00 0.00 0.00 48 1024.6
20260905040003 70 220 0.0 1.0 0.00 0.00 0.00 48 1024.5
20260905035503 70 220 0.0 1.0 0.00 0.00 0.00 47 1024.5
20260905035003 70 222 0.0 2.0 0.00 0.00 0.00 47 1024.5
20260905034503 70 221 1.0 2.0 0.00 0.00 0.00 46 1024.5
20260905034003 71 219 0.0 2.0 0.00 0.00 0.00 46 1024.2
20260905033503 70 221 0.0 1.0 0.00 0.00 0.00 46 1024.6
20260905033024 70 228 0.0 1.0 0.00 0.00 0.00 46 1024.6
20260905032503 71 230 0.0 1.0 0.00 0.00 0.00 45 1024.6
20260905032024 71 224 0.0 1.0 0.00 0.00 0.00 45 1024.5
20260905031503 71 217 0.0 1.0 0.00 0.00 0.00 45 1024.2
20260905031003 71 220 0.0 1.0 0.00 0.00 0.00 44 1024.2
20260905030503 71 221 1.0 2.0 0.00 0.00 0.00 45 1024.4
20260905030024 71 222 0.0 2.0 0.00 0.00 0.00 46 1024.1
20260905025524 71 220 0.0 1.0 0.00 0.00 0.00 46 1024.2
20260905025003 71 219 0.0 1.0 0.00 0.00 0.00 45 1024.5
20260905024503 71 0 0.0 0.0 0.00 0.00 0.00 45 1024.1
20260905024003 71 218 0.0 2.0 0.00 0.00 0.00 44 1024.1
20260905023503 72 220 1.0 2.0 0.00 0.00 0.00 43 1024.0
20260905023003 72 220 1.0 2.0 0.00 0.00 0.00 43 1024.2
20260905022503 72 220 1.0 2.0 0.00 0.00 0.00 44 1024.1
20260905022003 72 221 1.0 2.0 0.00 0.00 0.00 43 1024.1
20260905021503 72 220 0.0 1.0 0.00 0.00 0.00 44 1024.2
20260905021003 72 223 1.0 2.0 0.00 0.00 0.00 44 1023.9
20260905020503 72 224 0.0 2.0 0.00 0.00 0.00 44 1024.1
20260905020003 72 223 0.0 1.0 0.00 0.00 0.00 44 1024.0
20260905015503 72 233 0.0 1.0 0.00 0.00 0.00 43 1024.2
20260905015024 73 220 0.0 2.0 0.00 0.00 0.00 42 1024.4
20260905014524 74 220 1.0 2.0 0.00 0.00 0.00 42 1024.1
20260905014003 73 218 1.0 3.0 0.00 0.00 0.00 41 1024.0
20260905013503 73 217 1.0 3.0 0.00 0.00 0.00 42 1023.9
20260905013024 73 219 0.0 1.0 0.00 0.00 0.00 41 1024.2
20260905012503 74 218 1.0 1.0 0.00 0.00 0.00 41 1024.0
20260905012024 74 217 0.0 1.0 0.00 0.00 0.00 41 1024.1
20260905011524 73 217 0.0 1.0 0.00 0.00 0.00 41 1024.0
20260905011003 73 223 0.0 1.0 0.00 0.00 0.00 42 1024.1
20260905010503 73 221 0.0 1.0 0.00 0.00 0.00 42 1024.4
20260905010004 74 218 0.0 1.0 0.00 0.00 0.00 41 1024.1
20260905005504 74 215 0.0 1.0 0.00 0.00 0.00 41 1024.1
20260905005004 74 215 0.0 1.0 0.00 0.00 0.00 40 1024.4
20260905004525 74 215 0.0 1.0 0.00 0.00 0.00 40 1024.2
20260905004004 74 223 0.0 1.0 0.00 0.00 0.00 40 1024.2
20260905003504 74 218 0.0 1.0 0.00 0.00 0.00 40 1024.4
20260905003004 75 214 0.0 1.0 0.00 0.00 0.00 39 1024.4
20260905002504 75 213 0.0 2.0 0.00 0.00 0.00 39 1024.4
20260905002004 74 220 1.0 2.0 0.00 0.00 0.00 39 1024.2
20260905001505 74 224 1.0 2.0 0.00 0.00 0.00 40 1024.1
20260905001004 74 221 1.0 2.0 0.00 0.00 0.00 40 1024.1
20260905000504 75 220 1.0 2.0 0.00 0.00 0.00 39 1024.2
20260905000004 74 219 1.0 2.0 0.00 0.00 0.00 39 1024.1
20260904235504 74 221 0.0 1.0 0.00 0.00 0.00 40 1024.1
20260904235004 75 220 0.0 1.0 0.00 0.00 0.00 39 1024.1
20260904234504 75 220 0.0 2.0 0.00 0.00 0.00 38 1024.4
20260904234004 75 218 0.0 2.0 0.00 0.00 0.00 38 1024.1
20260904233504 76 196 0.0 2.0 0.00 0.00 0.00 38 1024.2
20260904233004 76 203 1.0 2.0 0.00 0.00 0.00 37 1024.2
20260904232504 76 217 0.0 2.0 0.00 0.00 0.00 38 1024.4
20260904232025 76 215 0.0 2.0 0.00 0.00 0.00 37 1024.0
20260904231504 76 218 1.0 2.0 0.00 0.00 0.00 38 1024.2
20260904231004 76 220 1.0 3.0 0.00 0.00 0.00 38 1024.1
20260904230504 76 219 1.0 3.0 0.00 0.00 0.00 37 1024.1
20260904230004 76 220 1.0 2.0 0.00 0.00 0.00 37 1024.2
20260904225504 76 221 0.0 1.0 0.00 0.00 0.00 38 1024.1
20260904225004 76 213 0.0 2.0 0.00 0.00 0.00 37 1023.9
20260904224504 77 218 1.0 2.0 0.00 0.00 0.00 36 1023.8
20260904224004 77 221 1.0 2.0 0.00 0.00 0.00 36 1023.8
20260904223504 77 219 0.0 2.0 0.00 0.00 0.00 36 1023.8
20260904223004 77 222 0.0 1.0 0.00 0.00 0.00 36 1023.7
20260904222504 77 222 0.0 1.0 0.00 0.00 0.00 36 1023.9
20260904222004 78 221 0.0 1.0 0.00 0.00 0.00 35 1023.7
20260904221525 78 220 1.0 2.0 0.00 0.00 0.00 34 1023.9
20260904221004 78 219 1.0 3.0 0.00 0.00 0.00 35 1023.7
20260904220504 78 218 1.0 3.0 0.00 0.00 0.00 35 1023.6
20260904220004 79 218 0.0 1.0 0.00 0.00 0.00 35 1023.5
20260904215504 79 217 0.0 1.0 0.00 0.00 0.00 34 1023.6
20260904215004 79 215 0.0 2.0 0.00 0.00 0.00 33 1023.8
20260904214504 79 193 1.0 3.0 0.00 0.00 0.00 33 1023.8
20260904214004 79 199 1.0 3.0 0.00 0.00 0.00 33 1023.9
20260904213504 79 216 1.0 3.0 0.00 0.00 0.00 33 1023.6
20260904213025 80 216 1.0 3.0 0.00 0.00 0.00 32 1023.7
20260904212504 81 219 1.0 3.0 0.00 0.00 0.00 31 1023.5
20260904212004 80 220 1.0 3.0 0.00 0.00 0.00 31 1023.6
20260904211504 80 224 1.0 2.0 0.00 0.00 0.00 32 1023.8
20260904211004 80 225 1.0 3.0 0.00 0.00 0.00 31 1023.5
20260904210504 81 223 1.0 3.0 0.00 0.00 0.00 32 1023.6
20260904210025 81 222 1.0 3.0 0.00 0.00 0.00 31 1023.5
20260904205504 82 217 1.0 2.0 0.00 0.00 0.00 30 1023.5
20260904205004 82 218 0.0 2.0 0.00 0.00 0.00 30 1023.5
20260904204504 82 220 1.0 2.0 0.00 0.00 0.00 29 1023.5
20260904204004 82 223 1.0 2.0 0.00 0.00 0.00 30 1023.4
20260904203504 83 223 1.0 2.0 0.00 0.00 0.00 30 1023.4
20260904203004 84 218 1.0 2.0 0.00 0.00 0.00 28 1023.3
20260904202504 84 214 0.0 1.0 0.00 0.00 0.00 27 1023.6
20260904202004 84 218 1.0 2.0 0.00 0.00 0.00 27 1023.3
20260904201504 84 217 1.0 2.0 0.00 0.00 0.00 27 1023.3
20260904201004 83 219 1.0 2.0 0.00 0.00 0.00 28 1023.2
20260904200504 84 224 1.0 1.0 0.00 0.00 0.00 28 1023.4
20260904200004 84 220 1.0 2.0 0.00 0.00 0.00 27 1023.3
20260904195504 85 224 1.0 3.0 0.00 0.00 0.00 27 1023.4
20260904195004 85 228 1.0 3.0 0.00 0.00 0.00 27 1023.0
20260904194504 86 226 1.0 2.0 0.00 0.00 0.00 27 1023.1
20260904194004 86 214 1.0 2.0 0.00 0.00 0.00 26 1023.0
20260904193504 86 216 1.0 3.0 0.00 0.00 0.00 27 1023.0
20260904193025 86 220 1.0 3.0 0.00 0.00 0.00 26 1022.7
20260904192504 87 217 1.0 2.0 0.00 0.00 0.00 25 1022.3
20260904192025 87 222 0.0 1.0 0.00 0.00 0.00 25 1022.5
20260904191504 87 221 1.0 2.0 0.00 0.00 0.00 24 1022.3
20260904191004 87 220 1.0 2.0 0.00 0.00 0.00 24 1022.2
20260904190504 88 221 1.0 2.0 0.00 0.00 0.00 24 1022.3
20260904190004 88 219 1.0 2.0 0.00 0.00 0.00 24 1022.1
20260904185504 89 215 0.0 2.0 0.00 0.00 0.00 24 1021.9
20260904185004 89 221 1.0 2.0 0.00 0.00 0.00 23 1022.0
20260904184525 89 223 0.0 1.0 0.00 0.00 0.00 24 1021.8
20260904184004 90 216 0.0 2.0 0.00 0.00 0.00 23 1021.8
20260904183504 91 215 0.0 2.0 0.00 0.00 0.00 23 1021.6
20260904183004 91 225 1.0 2.0 0.00 0.00 0.00 22 1021.6
20260904182504 92 228 1.0 2.0 0.00 0.00 0.00 21 1021.3
20260904182004 92 218 1.0 3.0 0.00 0.00 0.00 20 1021.5
20260904181504 92 219 1.0 3.0 0.00 0.00 0.00 20 1021.4
20260904181004 93 211 1.0 4.0 0.00 0.00 0.00 21 1021.3
20260904180504 93 203 1.0 4.0 0.00 0.00 0.00 20 1021.7
20260904180004 93 216 1.0 3.0 0.00 0.00 0.00 20 1021.2
20260904175504 94 218 1.0 3.0 0.00 0.00 0.00 20 1021.3
20260904175004 95 214 1.0 3.0 0.00 0.00 0.00 20 1021.4
20260904174504 96 218 0.0 2.0 0.00 0.00 0.00 21 1021.4
20260904174004 96 222 0.0 1.0 0.00 0.00 0.00 20 1021.2
20260904173504 96 233 1.0 3.0 0.00 0.00 0.00 20 1021.3
20260904173004 96 234 1.0 3.0 0.00 0.00 0.00 20 1021.3
20260904172525 97 232 1.0 2.0 0.00 0.00 0.00 19 1021.2
20260904172004 97 245 1.0 3.0 0.00 0.00 0.00 20 1020.9
20260904171504 98 251 1.0 3.0 0.00 0.00 0.00 19 1020.8
20260904171004 99 232 1.0 3.0 0.00 0.00 0.00 17 1020.8
20260904170525 100 196 1.0 4.0 0.00 0.00 0.00 18 1020.8
20260904170004 99 208 1.0 4.0 0.00 0.00 0.00 18 1020.6
20260904165504 100 225 0.0 2.0 0.00 0.00 0.00 22 1020.6
20260904165004 100 149 1.0 3.0 0.00 0.00 0.00 27 1020.7
20260904164525 99 104 1.0 3.0 0.00 0.00 0.00 27 1020.6
20260904164004 99 70 1.0 6.0 0.00 0.00 0.00 25 1020.4
20260904163504 98 61 1.0 6.0 0.00 0.00 0.00 29 1020.4
20260904163025 100 215 1.0 4.0 0.00 0.00 0.00 27 1020.6
20260904162504 100 231 2.0 8.0 0.00 0.00 0.00 26 1020.4
20260904162004 99 232 2.0 8.0 0.00 0.00 0.00 27 1020.6
20260904161525 100 256 2.0 7.0 0.00 0.00 0.00 27 1020.4
20260904161004 99 265 2.0 7.0 0.00 0.00 0.00 27 1020.2
20260904160525 100 244 2.0 6.0 0.00 0.00 0.00 26 1020.4
20260904160004 100 104 1.0 4.0 0.00 0.00 0.00 26 1020.5
20260904155504 100 88 2.0 6.0 0.00 0.00 0.00 26 1020.7
20260904155004 100 75 2.0 6.0 0.00 0.00 0.00 27 1020.5
20260904154504 100 76 1.0 6.0 0.00 0.00 0.00 27 1020.5
20260904154004 100 93 1.0 6.0 0.00 0.00 0.00 27 1020.5
20260904153525 100 79 1.0 7.0 0.00 0.00 0.00 26 1020.6
20260904153025 100 71 2.0 7.0 0.00 0.00 0.00 26 1020.5
20260904152504 99 61 2.0 6.0 0.00 0.00 0.00 27 1020.6
20260904152004 101 287 1.0 4.0 0.00 0.00 0.00 25 1020.6
20260904151525 101 155 1.0 6.0 0.00 0.00 0.00 26 1020.6
20260904151004 101 90 1.0 6.0 0.00 0.00 0.00 25 1020.6
20260904150504 100 57 1.0 6.0 0.00 0.00 0.00 25 1020.4
20260904150025 99 61 2.0 6.0 0.00 0.00 0.00 25 1020.7
20260904145525 100 50 2.0 7.0 0.00 0.00 0.00 25 1020.9
20260904145004 100 44 2.0 7.0 0.00 0.00 0.00 25 1020.8
20260904144504 100 118 1.0 6.0 0.00 0.00 0.00 24 1020.9
20260904144004 100 115 1.0 6.0 0.00 0.00 0.00 25 1020.7
20260904143504 100 202 1.0 7.0 0.00 0.00 0.00 24 1020.8
20260904143025 101 214 1.0 7.0 0.00 0.00 0.00 25 1020.7
20260904142504 100 269 2.0 6.0 0.00 0.00 0.00 24 1021.1
20260904142004 100 192 2.0 6.0 0.00 0.00 0.00 25 1021.1
20260904141504 100 104 1.0 4.0 0.00 0.00 0.00 24 1021.2
20260904141004 99 63 2.0 8.0 0.00 0.00 0.00 25 1021.4
20260904140504 97 55 3.0 8.0 0.00 0.00 0.00 25 1021.3
20260904140004 98 288 2.0 7.0 0.00 0.00 0.00 25 1021.3
20260904135504 100 260 2.0 6.0 0.00 0.00 0.00 24 1021.4
20260904135004 101 266 1.0 4.0 0.00 0.00 0.00 24 1021.1
20260904134525 99 18 2.0 4.0 0.00 0.00 0.00 25 1021.4
20260904134004 98 356 1.0 4.0 0.00 0.00 0.00 26 1021.3
20260904133504 99 259 1.0 4.0 0.00 0.00 0.00 26 1021.4
20260904133004 99 254 2.0 6.0 0.00 0.00 0.00 26 1021.6
20260904132504 99 298 2.0 6.0 0.00 0.00 0.00 26 1021.6
20260904132004 98 325 3.0 7.0 0.00 0.00 0.00 26 1021.6
20260904131504 98 282 2.0 7.0 0.00 0.00 0.00 25 1021.7
20260904131004 99 197 1.0 7.0 0.00 0.00 0.00 25 1021.7
20260904130525 98 258 1.0 6.0 0.00 0.00 0.00 27 1021.7
20260904130004 98 266 2.0 6.0 0.00 0.00 0.00 27 1022.0
20260904125525 98 268 1.0 4.0 0.00 0.00 0.00 25 1021.9
20260904125004 97 276 1.0 6.0 0.00 0.00 0.00 28 1021.8
20260904124504 96 278 1.0 6.0 0.00 0.00 0.00 28 1022.0
20260904124025 97 77 1.0 6.0 0.00 0.00 0.00 30 1021.9
20260904123504 96 31 1.0 4.0 0.00 0.00 0.00 31 1022.0
20260904123004 96 282 1.0 4.0 0.00 0.00 0.00 30 1022.1
20260904122504 96 263 1.0 6.0 0.00 0.00 0.00 31 1022.2
20260904122004 96 256 2.0 6.0 0.00 0.00 0.00 32 1022.1
20260904121504 95 265 1.0 4.0 0.00 0.00 0.00 33 1022.4
20260904121004 95 266 1.0 4.0 0.00 0.00 0.00 35 1022.4
20260904120504 95 255 1.0 6.0 0.00 0.00 0.00 35 1022.4
20260904120004 94 267 1.0 6.0 0.00 0.00 0.00 34 1022.7
20260904115504 94 294 1.0 7.0 0.00 0.00 0.00 35 1022.5